Location: Pelayos de la Presa
(40.3598°N, 4.3340°W)
Time: 07:56:21
(UTC+00:00)

Daily predictions for brighter satellites

Satellite Brightness Start Highest point End
(mag) Time Altitude Azimuth Time Altitude Azimuth Time Altitude Azimuth
In-Cosmos 22 4.0 18:23:04 10° N 18:28:23 78° E 18:33:39 10° SSE
Cosmos 1869 Rocket 3.9 18:28:27 10° SSW 18:32:54 73° W 18:37:23 10° N
ISS -1.4 18:31:42 10° NNW 18:33:38 14° NNE 18:35:33 10° NE
Cosmos 1763 Rocket 3.5 18:28:39 10° NNW 18:33:39 59° ENE 18:38:40 10° SSE
Cosmos 2279 Rocket 4.3 18:28:40 10° N 18:34:40 46° ENE 18:40:37 10° SSE
Meteor 1-21 4.2 18:28:58 10° N 18:34:43 81° E 18:40:22 10° SSE
Aureole 1 4.1 18:35:57 10° S 18:38:54 58° ESE 18:41:59 10° NNE
Cosmos 1634 Rocket 4.0 18:33:02 10° N 18:39:14 78° E 18:45:24 10° S
Cosmos 2219 3.2 18:34:04 10° NNW 18:39:50 69° ENE 18:45:33 10° SSE
SAR-Lupe-3 4.5 18:37:38 10° SSE 18:41:10 72° ENE 18:44:43 10° N
HJ-1C 4.2 18:38:48 10° SE 18:41:30 27° ENE 18:44:12 10° NNE
SL-14 R/B 4.4 18:38:38 10° NNE 18:41:53 24° ENE 18:45:08 10° SE
NOSS 3-1 (A) 4.2 18:34:23 10° NNW 18:42:02 72° NE 18:50:59 10° SE
Cosmos 2360 4.4 18:38:24 10° SSW 18:44:08 78° WNW 18:49:53 10° NNE
GENESIS II 4.3 18:40:12 10° NNW 18:44:16 69° NE 18:48:18 10° SE
Cosmos 1805 3.5 18:41:49 10° SSE 18:45:29 42° E 18:49:10 10° NNE
Cosmos 1741 Rocket 4.3 18:43:06 10° S 18:48:07 45° ESE 18:53:07 10° NNE
USA 186 4.0 18:49:21 11° ENE 18:49:21 11° ENE 18:50:10 10° NE
Cosmos 2263 Rocket 3.2 18:45:27 10° N 18:50:14 27° NE 18:54:19 13° ESE
NOSS 2-2 (D) 4.4 18:45:04 10° NNW 18:50:19 72° NE 18:57:47 10° SE
Cosmos 1378 Rocket 4.5 18:46:52 10° NNE 18:50:38 27° ENE 18:54:21 10° SE
Cosmos 1733 Rocket 3.0 18:53:02 10° S 18:57:25 69° E 19:01:51 10° NNE
Cosmos 1766 4.1 18:54:40 10° SSE 18:58:00 28° E 19:01:22 10° NNE
Cosmos 2082 3.9 18:53:47 10° NNW 18:59:24 54° ENE 19:04:59 10° SE
Cosmos 1242 Rocket 2.4 18:56:38 10° S 19:00:12 88° E 19:03:46 10° N
Okean-O 4.1 19:00:42 16° E 19:01:49 18° ENE 19:04:46 10° NNE
CZ-2C R/B 2.2 18:59:06 10° WSW 19:01:53 26° S 19:04:00 15° SE
Cosmos 1726 2.4 18:59:49 10° SSE 19:03:14 40° E 19:06:41 10° NNE
ARGOS Delta rocket 4.0 18:58:06 10° N 19:03:27 89° E 19:08:30 10° SSW
Cosmos 1697 Rocket 3.6 19:00:33 10° SW 19:05:58 51° WNW 19:11:28 10° NNE
Cosmos 1674 3.7 19:03:07 10° NNW 19:06:45 48° W 19:10:19 10° SSW
MOS 1-B 4.4 19:02:27 10° SSE 19:08:14 83° WSW 19:14:05 10° NNW
Cosmos 2084 4.1 19:08:48 10° SW 19:12:32 50° NW 19:16:15 10° NNE
IRIDIUM 106 4.3 19:11:38 10° SSE 19:16:43 58° E 19:21:51 10° N
Hubble Space Telescope 2.9 19:20:18 10° SW 19:22:40 15° S 19:24:08 13° SSE
COBE Rocket 4.3 19:18:24 10° S 19:23:19 67° W 19:28:08 10° NNW
Cosmos 1733 4.1 19:21:06 10° SSW 19:24:44 49° W 19:28:24 10° N
CZ-4 R/B 1.4 19:22:44 10° SSE 19:26:53 90° WNW 19:31:05 10° NNW
USA 267 4.1 19:21:56 10° SSE 19:28:12 48° SW 19:34:30 10° WNW
Feng Yun 1-1 Rocket 4.1 19:23:45 10° SSE 19:29:19 81° ENE 19:34:46 10° NNW
MINOTAUR IV R/B 4.5 19:26:12 10° S 19:30:41 66° ESE 19:35:09 10° NNE
Gbstr 26 Del rocket 4.5 19:24:32 10° SW 19:32:03 89° NW 19:40:02 11° NE
Meteor 2-16 Rocket 4.5 19:26:17 10° SSE 19:32:13 54° E 19:38:10 10° NNE
Meteor 1-12 Rocket 4.3 19:26:31 10° S 19:32:23 64° E 19:38:21 10° NNE
Cosmos 2227 Rocket 3.8 19:27:58 10° NW 19:33:01 35° WSW 19:38:04 10° SSW
CZ-4B R/B 3.9 19:29:17 10° S 19:34:28 54° W 19:39:48 10° NNW
Cosmos 2285 Rocket 4.4 19:28:45 10° N 19:34:46 43° ENE 19:37:15 30° ESE
Okean O Rocket 2.0 19:31:08 10° S 19:35:25 62° WSW 19:39:46 10° NNW
Timation 2 Rocket 4.0 19:30:11 10° NNW 19:36:36 64° ENE 19:40:08 26° SE
Cosmos 2026 Rocket 4.4 19:32:51 17° SSE 19:37:00 37° E 19:42:29 10° NNE
SJ-6B 3.1 19:37:26 41° ENE 19:37:26 41° ENE 19:40:40 10° N
BREEZE M DEB (TANK) 2.6 19:29:26 10° SW 19:37:15 58° SSE 19:38:08 45° E
BREEZE-M DEB (TANK) 2.6 19:37:08 10° NW 19:39:28 61° NNE 19:39:57 52° ENE
Cosmos 1908 Rocket 3.4 19:36:25 10° S 19:40:43 68° E 19:45:01 10° NNE
CSL-04 Rocket 3.8 19:38:43 31° SE 19:40:57 52° ENE 19:46:09 10° N
Nadezhda 4 Rocket 4.0 19:37:06 10° S 19:43:25 88° E 19:49:47 10° N
Cosmos 1980 Rocket 3.1 19:40:20 10° SW 19:45:46 49° WNW 19:51:14 10° NNE
Cosmos 968 Rocket 3.5 19:42:42 10° S 19:47:48 53° ESE 19:52:54 10° NNE
YAOGAN 1 4.4 19:49:44 10° SSW 19:53:35 31° W 19:57:27 10° NNW
OBJECT-B 3.0 19:56:15 15° NNW 19:56:15 15° NNW 19:56:51 10° NNW
Landsat 5 3.7 19:52:38 10° N 19:57:09 79° WNW 20:01:36 10° SSW
Landsat 7 4.1 19:58:02 47° NE 19:58:02 47° NE 20:02:07 10° N
Cosmos 1437 Rocket 4.3 20:00:08 24° NNE 20:00:08 24° NNE 20:01:44 10° N
Cosmos 1674 Rocket 4.4 19:54:22 10° NNW 19:58:37 50° W 20:02:53 10° SSW
Cosmos 2278 3.9 19:53:22 10° SSW 19:59:02 70° WNW 20:04:44 10° NNE
Meteor 1-24 Rocket 3.8 19:55:35 10° N 20:00:32 49° ENE 20:00:32 49° ENE
SL-4 R/B 3.5 19:58:14 10° NW 20:02:16 30° NNE 20:02:29 30° NNE
SL-16 R/B 2.1 19:57:22 10° S 20:02:54 59° ESE 20:08:28 10° NNE
Cosmos 2292 Rocket 4.1 19:58:45 10° S 20:05:06 82° W 20:09:49 10° N
Meteor 1-22 Rocket 3.9 20:01:06 10° S 20:06:23 75° E 20:11:53 10° NNE
H-2A R/B 4.5 20:08:58 17° NNE 20:08:58 17° NNE 20:10:04 10° N
Cosmos 841 Rocket 4.2 20:01:34 10° NNW 20:06:34 50° WSW 20:10:02 19° S
Cosmos 1570 Rocket 4.1 20:03:52 10° N 20:08:41 54° NE 20:08:41 54° NE
ISS -1.8 20:07:48 10° NW 20:09:34 26° NNW 20:09:34 26° NNW
Resurs 01 Rocket 3.5 20:19:37 20° NNE 20:19:37 20° NNE 20:21:07 10° N
Cosmos 1844 Rocket 4.0 20:12:27 10° N 20:16:00 26° NNE 20:16:00 26° NNE
Cosmos 1092 Rocket 3.9 20:13:04 10° S 20:19:24 86° W 20:25:44 10° N
USA 186 4.0 20:22:30 25° NW 20:22:30 25° NW 20:24:16 10° NNW
Meteor 2-5 Rocket 3.6 20:22:47 10° NNW 20:28:20 80° W 20:28:43 75° SSW
IGS 5A 4.5 20:30:00 44° WNW 20:30:00 44° WNW 20:33:33 10° NNW
Cosmos 2208 Rocket 4.5 20:25:47 10° NNW 20:30:00 53° N 20:30:00 53° N
Cosmos 2227 4.2 20:28:28 10° NNW 20:33:58 79° W 20:33:58 79° W
Cosmos 2263 Rocket 3.1 20:28:56 10° NW 20:34:21 45° WSW 20:36:03 35° SSW
USA 81 4.3 20:29:43 10° N 20:34:13 65° NNW 20:34:13 65° NNW
BREEZE-M DEB (TANK) 4.4 20:18:52 10° WNW 20:36:00 67° N 20:37:07 58° NE
Okean-O 3.7 20:38:15 42° W 20:38:15 42° W 20:42:09 10° NNW
BREEZE-M TANK 4.5 20:34:46 10° SW 20:39:25 31° SSW 20:39:25 31° SSW
SL-16 R/B 4.4 21:43:09 10° WSW 21:47:25 21° NW 21:51:42 10° N
